SS5 Bot 2 (gravel) (6.50 km)

Stage-

Pos # Driver Time Diff Prev Diff 1st
1. 7 GBRK. MEEKE 3:57.7
2. 4 NORA. MIKKELSEN 3:58.5 +0.8 +0.8
3. 6 ESPD. SORDO 3:59.0 +0.5 +1.3
4. 8 FRAS. LEFEBVRE 3:59.4 +0.4 +1.7
5. 14 NORM. OSTBERG 3:59.5 +0.1 +1.8
6. 5 BELT. NEUVILLE 3:59.8 +0.3 +2.1
7. 2 ESTO. TÄNAK 4:00.3 +0.5 +2.6
8. 11 FINJ. HÄNNINEN 4:00.7 +0.4 +3.0
9. 10 FINJ. LATVALA 4:01.2 +0.5 +3.5
10. 1 FRAS. OGIER 4:01.6 +0.4 +3.9
11. 12 FINE. LAPPI 4:02.0 +0.4 +4.3
12. 3 GBRE. EVANS 4:02.7 +0.7 +5.0
13. 82 FRAE. CAMILI 4:06.7 +4.0 +9.0
14. 32 FINT. SUNINEN 4:07.4 +0.7 +9.7
15. 31 CZEJ. KOPECKY 4:10.1 +2.7 +12.4
16. 83 NORO. VEIBY 4:10.5 +0.4 +12.8
17. 84 FRAP. LOUBET 4:10.8 +0.3 +13.1
18. 42 FINJ. NORDGREN 4:13.0 +2.2 +15.3
19. 39 FRAY. BONATO 4:13.9 +0.9 +16.2
20. 9 AREK. AL QASSIMI 4:14.2 +0.3 +16.5
21. 34 MEXB. GUERRA 4:14.9 +0.7 +17.2
22. 43 GBRJ. ARMSTRONG 4:15.6 +0.7 +17.9
23. 33 ROUS. TEMPESTINI 4:16.1 +0.5 +18.4
24. 88 CHEJ. TÖDTLI 4:17.4 +1.3 +19.7
25. 46 GBRR. YATES 4:17.9 +0.5 +20.2
26. 37 POLL. PIENIAZEK 4:18.0 +0.1 +20.3
27. 20 UKRV. GORBAN 4:19.9 +1.9 +22.2
28. 44 ESPC. GARCIA 4:20.7 +0.8 +23.0
29. 45 TURO. AVCIOGLU 4:23.1 +2.4 +25.4
30. 92 ESPJ. PELAEZ 4:29.9 +6.8 +32.2
31. 89 ECUM. NAVAS 4:30.4 +0.5 +32.7
32. 21 FRAJ. RAOUX 4:33.0 +2.6 +35.3
33. 63 FRAN. CIAMIN 4:34.1 +1.1 +36.4
34. 62 ESPN. SOLANS 4:34.3 +0.2 +36.6
35. 65 FRAT. FOLB 4:37.0 +2.7 +39.3
36. 87 IRLE. BOLAND 4:38.1 +1.1 +40.4
37. 61 FRAR. ASTIER 4:39.8 +1.7 +42.1
38. 64 DEUJ. TANNERT 4:40.0 +0.2 +42.3
39. 93 ESPF. MACIAS 4:44.4 +4.4 +46.7
40. 22 GRCJ. SERDERIDIS 4:45.3 +0.9 +47.6
41. 66 SWED. RADSTRÖM 4:47.3 +2.0 +49.6
42. 90 ESPJ. SOLANS 4:52.1 +4.8 +54.4
43. 94 ESPG. SOSA 4:53.0 +0.9 +55.3
44. 95 ANDM. BESOLI 4:55.0 +2.0 +57.3
45. 100 ESPJ. DOMENECH 4:56.3 +1.3 +58.6
46. 96 SWEM. ANDERSSON 4:57.3 +1.0 +59.6
47. 91 ESPJ. FONT 4:57.4 +0.1 +59.7
48. 104 ESPR. ROZADA 5:02.6 +5.2 +1:04.9
49. 108 ESPJ. SALINAS 5:11.9 +9.3 +1:14.2
50. 101 ESPZ. ESTEBAN 5:13.0 +1.1 +1:15.3
51. 106 ESPA. VILA 5:15.7 +2.7 +1:18.0
52. 97 ITAG. TAVELLI 5:17.0 +1.3 +1:19.3
53. 105 ESPJ. BASSAS 5:17.5 +0.5 +1:19.8
54. 102 DEUR. KUHN 5:19.8 +2.3 +1:22.1
55. 107 ESPS. FRANCOLI 5:20.7 +0.9 +1:23.0
56. 98 FRAJ. GUIBERT 5:34.3 +13.6 +1:36.6
57. 112 ESPP. SUAREZ 5:34.3 +0.0 +1:36.6
58. 99 FRAP. GOMEZ 5:34.4 +0.1 +1:36.7
59. 110 ESPM. PARADELL 5:36.0 +1.6 +1:38.3
60. 114 ESPE. SANS 6:07.4 +31.4 +2:09.7
61. 109 ESPA. SERRATOSA 9:14.4 +3:07.0 +5:16.7
62. 35 GBRG. GREENSMITH 11:07.4 +1:53.0 +7:09.7
63. 38 JPNT. KATSUTA 11:07.4 +0.0 +7:09.7
64. 40 JPNH. ARAI 11:07.4 +0.0 +7:09.7
65. 41 ITAF. ANDOLFI 11:07.4 +0.0 +7:09.7
66. 103 PRTJ. RAMOS 12:02.6 +55.2 +8:04.9
67. 111 ANDC. RIBEIRO 12:11.9 +9.3 +8:14.2
68. 115 ITAC. GIAMPAOLI 12:11.9 +0.0 +8:14.2

Overall-

Pos # Driver Time Diff Prev Diff 1st
1. 4 NORA. MIKKELSEN 47:29.6
2. 14 NORM. OSTBERG 47:30.3 +0.7 +0.7
3. 1 FRAS. OGIER 47:38.8 +8.5 +9.2
4. 7 GBRK. MEEKE 47:39.6 +0.8 +10.0
5. 2 ESTO. TÄNAK 47:40.2 +0.6 +10.6
6. 6 ESPD. SORDO 47:40.6 +0.4 +11.0
7. 10 FINJ. LATVALA 47:46.2 +5.6 +16.6
8. 5 BELT. NEUVILLE 47:47.2 +1.0 +17.6
9. 11 FINJ. HÄNNINEN 47:55.0 +7.8 +25.4
10. 3 GBRE. EVANS 48:11.4 +16.4 +41.8
11. 8 FRAS. LEFEBVRE 48:15.4 +4.0 +45.8
12. 12 FINE. LAPPI 48:24.4 +9.0 +54.8
13. 82 FRAE. CAMILI 48:58.7 +34.3 +1:29.1
14. 32 FINT. SUNINEN 49:11.7 +13.0 +1:42.1
15. 83 NORO. VEIBY 49:33.6 +21.9 +2:04.0
16. 84 FRAP. LOUBET 50:05.5 +31.9 +2:35.9
17. 33 ROUS. TEMPESTINI 50:33.7 +28.2 +3:04.1
18. 31 CZEJ. KOPECKY 50:54.4 +20.7 +3:24.8
19. 34 MEXB. GUERRA 50:56.1 +1.7 +3:26.5
20. 9 AREK. AL QASSIMI 50:59.3 +3.2 +3:29.7
21. 88 CHEJ. TÖDTLI 51:29.9 +30.6 +4:00.3
22. 37 POLL. PIENIAZEK 51:38.1 +8.2 +4:08.5
23. 42 FINJ. NORDGREN 51:47.2 +9.1 +4:17.6
24. 45 TURO. AVCIOGLU 52:06.8 +19.6 +4:37.2
25. 20 UKRV. GORBAN 52:08.5 +1.7 +4:38.9
26. 46 GBRR. YATES 52:34.4 +25.9 +5:04.8
27. 44 ESPC. GARCIA 53:21.4 +47.0 +5:51.8
28. 62 ESPN. SOLANS 53:45.0 +23.6 +6:15.4
29. 63 FRAN. CIAMIN 53:49.7 +4.7 +6:20.1
30. 65 FRAT. FOLB 54:04.6 +14.9 +6:35.0
31. 89 ECUM. NAVAS 54:10.7 +6.1 +6:41.1
32. 21 FRAJ. RAOUX 54:50.1 +39.4 +7:20.5
33. 64 DEUJ. TANNERT 54:57.7 +7.6 +7:28.1
34. 61 FRAR. ASTIER 55:24.3 +26.6 +7:54.7
35. 87 IRLE. BOLAND 55:25.5 +1.2 +7:55.9
36. 90 ESPJ. SOLANS 56:10.7 +45.2 +8:41.1
37. 93 ESPF. MACIAS 56:16.2 +5.5 +8:46.6
38. 92 ESPJ. PELAEZ 56:55.9 +39.7 +9:26.3
39. 43 GBRJ. ARMSTRONG 56:57.8 +1.9 +9:28.2
40. 95 ANDM. BESOLI 57:26.1 +28.3 +9:56.5
41. 22 GRCJ. SERDERIDIS 58:00.5 +34.4 +10:30.9
42. 91 ESPJ. FONT 58:07.2 +6.7 +10:37.6
43. 96 SWEM. ANDERSSON 58:11.0 +3.8 +10:41.4
44. 66 SWED. RADSTRÖM 58:47.6 +36.6 +11:18.0
45. 39 FRAY. BONATO 58:51.1 +3.5 +11:21.5
46. 94 ESPG. SOSA 58:54.0 +2.9 +11:24.4
47. 104 ESPR. ROZADA 59:25.4 +31.4 +11:55.8
48. 100 ESPJ. DOMENECH 1:00:15.5 +50.1 +12:45.9
49. 107 ESPS. FRANCOLI 1:00:31.1 +15.6 +13:01.5
50. 105 ESPJ. BASSAS 1:00:40.9 +9.8 +13:11.3
51. 106 ESPA. VILA 1:01:16.6 +35.7 +13:47.0
52. 102 DEUR. KUHN 1:02:20.2 +1:03.6 +14:50.6
53. 97 ITAG. TAVELLI 1:02:51.1 +30.9 +15:21.5
54. 110 ESPM. PARADELL 1:03:20.7 +29.6 +15:51.1
55. 101 ESPZ. ESTEBAN 1:03:25.2 +4.5 +15:55.6
56. 98 FRAJ. GUIBERT 1:04:16.8 +51.6 +16:47.2
57. 112 ESPP. SUAREZ 1:04:22.1 +5.3 +16:52.5
58. 99 FRAP. GOMEZ 1:05:16.0 +53.9 +17:46.4
59. 109 ESPA. SERRATOSA 1:05:26.2 +10.2 +17:56.6
60. 114 ESPE. SANS 1:09:36.1 +4:09.9 +22:06.5
61. 40 JPNH. ARAI 1:10:34.5 +58.4 +23:04.9
62. 108 ESPJ. SALINAS 1:17:43.6 +7:09.1 +30:14.0
63. 111 ANDC. RIBEIRO 1:21:11.2 +3:27.6 +33:41.6
64. 103 PRTJ. RAMOS 1:21:11.8 +0.6 +33:42.2
65. 115 ITAC. GIAMPAOLI 1:22:05.9 +54.1 +34:36.3
66. 35 GBRG. GREENSMITH 1:24:11.7 +2:05.8 +36:42.1
67. 41 ITAF. ANDOLFI 1:24:11.7 +0.0 +36:42.1
68. 38 JPNT. KATSUTA 1:43:16.1 +19:04.4 +55:46.5